Temp
-7 -7 -7 -7 -7 -7 -7 -7 -7 -7 -6 -6 -6 -6 -6 -6 -6 -6 -6 -6 -6 -6 -6 -6 -6 -7 -7 -7 -7 -7 -8 -8 -8 -8 -8 -8 -9 -9 -9 -9 -9 -9 -9 -10
-7 -7 -7 -7 -7 -7 -6 -6 -6 -6 -6 -6 -6 -5 -6 -6 -6 -6 -6 -6 -6 -6 -6 -6 -6 -7 -7 -7 -7 -7 -7 -8 -8 -8 -8 -8 -9 -9 -9 -9 -9 -9 -9 -10
-7 -7 -6 -6 -6 -6 -6 -6 -6 -5 -5 -5 -5 -5 -5 -5 -6 -6 -6 -6 -6 -6 -6 -6 -6 -7 -7 -7 -7 -7 -7 -7 -7 -8 -8 -8 -8 -9 -9 -9 -9 -9 -9 -10
-6 -6 -6 -6 -6 -6 -6 -6 -5 -5 -5 -5 -5 -5 -5 -5 -6 -6 -6 -6 -6 -6 -6 -6 -6 -6 -7 -7 -7 -7 -7 -7 -8 -8 -8 -8 -8 -8 -8 -9 -9 -9 -9 -10
-6 -5 -5 -5 -5 -5 -5 -5 -5 -5 -5 -5 -5 -5 -5 -6 -6 -6 -6 -6 -6 -6 -6 -6 -6 -6 -6 -6 -7 -7 -7 -7 -7 -8 -8 -8 -8 -8 -9 -9 -9 -9 -9 -10
-6 -5 -6 -5 -5 -5 -5 -5 -5 -5 -5 -5 -5 -5 -5 -6 -6 -6 -6 -6 -6 -6 -6 -6 -6 -6 -6 -6 -7 -7 -7 -7 -7 -7 -8 -8 -8 -8 -8 -9 -9 -9 -9 -10
-5 -5 -5 -5 -5 -5 -5 -5 -5 -5 -6 -6 -6 -6 -6 -6 -6 -6 -6 -6 -6 -6 -6 -6 -6 -6 -6 -6 -7 -7 -7 -7 -7 -7 -7 -8 -8 -8 -8 -8 -9 -9 -9 -10
-5 -5 -5 -5 -5 -5 -5 -5 -5 -5 -5 -5 -6 -6 -6 -6 -6 -6 -6 -6 -6 -6 -6 -6 -6 -6 -7 -7 -7 -7 -7 -7 -7 -7 -7 -8 -8 -8 -8 -8 -9 -9 -9 -10
-5 -5 -5 -5 -5 -5 -5 -5 -5 -5 -5 -6 -6 -6 -6 -6 -6 -6 -6 -6 -6 -6 -6 -6 -7 -7 -7 -7 -7 -7 -7 -7 -7 -7 -7 -7 -8 -8 -8 -8 -9 -9 -9 -10
-5 -5 -5 -5 -5 -5 -5 -5 -5 -5 -5 -6 -6 -6 -6 -6 -6 -6 -6 -6 -6 -6 -6 -6 -7 -7 -7 -7 -7 -7 -7 -8 -8 -8 -8 -8 -8 -8 -8 -8 -9 -9 -9 -9
-5 -5 -5 -5 -5 -5 -5 -5 -5 -6 -6 -6 -6 -6 -6 -6 -6 -6 -6 -6 -6 -6 -6 -6 -7 -7 -7 -7 -7 -8 -8 -8 -8 -8 -8 -8 -8 -8 -8 -8 -8 -8 -9 -9
-5 -5 -5 -5 -5 -5 -5 -5 -6 -6 -6 -6 -6 -6 -6 -6 -6 -6 -6 -6 -7 -7 -7 -7 -7 -7 -7 -8 -8 -8 -8 -8 -8 -8 -8 -8 -8 -8 -8 -8 -8 -8 -9 -9
-5 -5 -5 -5 -5 -5 -5 -6 -6 -6 -6 -6 -6 -6 -6 -6 -6 -7 -6 -7 -7 -7 -7 -7 -7 -7 -7 -8 -8 -8 -8 -8 -8 -8 -8 -8 -8 -8 -8 -8 -8 -8 -9 -9
-6 -5 -5 -5 -6 -6 -6 -6 -6 -5 -6 -6 -6 -6 -6 -6 -6 -7 -7 -7 -7 -7 -7 -7 -7 -8 -8 -8 -8 -8 -8 -8 -9 -9 -8 -8 -8 -8 -9 -9 -9 -8 -9 -9
-5 -5 -6 -6 -6 -6 -6 -6 -6 -6 -6 -6 -7 -7 -7 -6 -6 -7 -7 -7 -7 -7 -7 -8 -8 -8 -8 -8 -8 -8 -8 -8 -9 -9 -9 -9 -8 -8 -9 -9 -9 -9 -9 -9
-6 -6 -6 -6 -6 -6 -6 -6 -6 -6 -6 -6 -7 -7 -8 -6 -6 -7 -7 -7 -8 -8 -8 -8 -8 -8 -8 -8 -9 -9 -9 -9 -9 -9 -9 -9 -9 -9 -9 -9 -9 -9 -9 -10
-6 -6 -7 -6 -6 -6 -5 -6 -6 -6 -6 -7 -6 -7 -7 -7 -7 -7 -8 -8 -8 -8 -8 -8 -8 -9 -9 -8 -8 -9 -9 -9 -9 -9 -9 -9 -9 -9 -9 -9 -9 -9 -10 -10
-6 -6 -6 -6 -6 -5 -5 -6 -7 -7 -7 -7 -7 -7 -7 -7 -7 -8 -8 -8 -8 -9 -8 -9 -9 -9 -9 -9 -9 -10 -10 -9 -9 -9 -9 -9 -9 -9 -9 -9 -10 -10 -10 -11
-7 -7 -7 -6 -6 -6 -5 -6 -7 -7 -7 -8 -8 -8 -8 -7 -7 -8 -8 -8 -9 -9 -9 -9 -9 -9 -9 -10 -9 -10 -10 -10 -9 -9 -10 -9 -9 -10 -10 -10 -10 -11 -11 -11
-7 -7 -7 -6 -6 -5 -6 -7 -7 -7 -6 -9 -8 -8 -8 -8 -8 -9 -8 -9 -9 -10 -9 -9 -9 -9 -10 -10 -9 -10 -10 -10 -10 -10 -10 -10 -10 -10 -10 -10 -11 -11 -11 -12
-7 -7 -7 -7 -6 -5 -6 -7 -8 -8 -7 -9 -9 -9 -8 -9 -9 -9 -9 -9 -10 -10 -10 -10 -10 -10 -10 -10 -9 -10 -10 -10 -10 -10 -10 -10 -11 -11 -11 -11 -11 -11 -12 -12
-8 -8 -7 -8 -7 -5 -7 -8 -8 -9 -8 -8 -9 -9 -9 -9 -9 -9 -9 -9 -10 -10 -10 -10 -10 -10 -10 -10 -10 -10 -10 -10 -10 -11 -11 -11 -11 -11 -11 -11 -11 -12 -12 -12
-8 -8 -8 -8 -7 -8 -8 -9 -9 -9 -9 -9 -9 -9 -9 -9 -9 -9 -9 -10 -10 -10 -11 -11 -11 -11 -11 -10 -10 -10 -11 -11 -10 -11 -11 -11 -11 -11 -11 -12 -12 -12 -13 -13
-8 -8 -9 -8 -7 -8 -9 -9 -9 -9 -9 -9 -9 -10 -10 -10 -10 -10 -10 -10 -10 -10 -11 -11 -11 -12 -11 -11 -11 -11 -11 -11 -11 -11 -11 -11 -11 -11 -11 -12 -12 -12 -13 -13
-9 -9 -8 -8 -8 -8 -9 -9 -10 -10 -10 -10 -10 -10 -10 -10 -10 -10 -10 -10 -10 -11 -11 -11 -11 -11 -11 -11 -11 -11 -11 -10 -10 -10 -11 -11 -11 -11 -12 -12 -13 -13 -13 -13
-8 -8 -8 -8 -9 -9 -9 -10 -10 -10 -10 -10 -10 -10 -11 -10 -10 -10 -10 -11 -11 -11 -11 -12 -12 -12 -11 -11 -11 -11 -10 -10 -10 -11 -11 -11 -11 -12 -12 -12 -13 -13 -13 -14
Height
5905 5906 5907 5908 5910 5911 5912 5913 5914 5915 5915 5916 5916 5916 5917 5917 5917 5917 5916 5915 5914 5913 5912 5910 5909 5906 5903 5901 5899 5896 5894 5892 5889 5886 5882 5878 5875 5872 5869 5866 5863 5860 5858 5855
5905 5906 5908 5909 5910 5912 5913 5913 5914 5916 5916 5916 5917 5917 5917 5917 5917 5917 5916 5915 5914 5913 5911 5910 5907 5905 5903 5901 5898 5896 5893 5890 5887 5884 5880 5876 5872 5869 5866 5863 5860 5857 5854 5851
5905 5907 5907 5909 5910 5911 5913 5914 5915 5916 5917 5917 5917 5918 5918 5918 5917 5917 5916 5915 5914 5913 5911 5910 5908 5905 5903 5901 5898 5895 5892 5888 5885 5881 5877 5873 5870 5865 5862 5859 5856 5852 5849 5845
5904 5905 5907 5909 5910 5912 5914 5915 5916 5916 5917 5918 5918 5919 5918 5918 5917 5917 5917 5915 5914 5912 5911 5909 5907 5905 5903 5900 5897 5894 5890 5886 5883 5878 5874 5870 5866 5863 5858 5855 5851 5847 5844 5840
5905 5906 5907 5909 5911 5913 5915 5915 5916 5917 5918 5918 5919 5919 5918 5917 5917 5917 5916 5915 5914 5913 5911 5909 5907 5904 5901 5898 5895 5891 5887 5884 5880 5875 5871 5867 5863 5859 5855 5851 5847 5842 5838 5834
5904 5906 5908 5909 5911 5913 5914 5915 5916 5917 5918 5918 5919 5920 5919 5919 5919 5918 5916 5915 5914 5912 5910 5908 5906 5903 5900 5897 5893 5889 5885 5880 5877 5872 5868 5863 5859 5855 5851 5847 5842 5837 5833 5828
5904 5906 5908 5910 5912 5913 5914 5915 5916 5917 5917 5918 5918 5919 5919 5918 5918 5917 5916 5914 5912 5910 5908 5906 5903 5901 5898 5895 5891 5887 5882 5877 5873 5868 5864 5860 5856 5851 5846 5842 5837 5832 5828 5823
5903 5906 5907 5909 5910 5912 5913 5914 5915 5916 5916 5917 5917 5918 5918 5917 5916 5915 5914 5912 5910 5908 5906 5904 5901 5898 5895 5892 5888 5884 5879 5875 5870 5865 5861 5856 5851 5847 5841 5837 5832 5827 5823 5818
5901 5903 5904 5906 5908 5911 5911 5912 5914 5914 5915 5915 5916 5916 5916 5915 5913 5912 5910 5909 5907 5906 5903 5901 5898 5895 5891 5888 5884 5879 5875 5871 5867 5862 5857 5851 5846 5842 5837 5832 5826 5822 5817 5812
5898 5900 5902 5904 5906 5908 5909 5911 5912 5912 5913 5913 5914 5913 5913 5912 5910 5909 5907 5906 5904 5902 5900 5898 5895 5892 5888 5884 5880 5876 5871 5867 5862 5857 5852 5847 5842 5837 5832 5827 5821 5816 5811 5806
5895 5898 5900 5901 5903 5904 5906 5907 5908 5909 5910 5910 5910 5911 5909 5908 5907 5906 5904 5903 5901 5899 5897 5894 5890 5887 5883 5879 5875 5870 5866 5861 5856 5852 5847 5843 5838 5832 5826 5821 5815 5810 5805 5799
5891 5893 5894 5897 5898 5900 5902 5903 5904 5904 5906 5905 5905 5907 5905 5904 5903 5902 5900 5899 5897 5895 5893 5889 5886 5883 5879 5875 5871 5867 5862 5857 5852 5847 5842 5836 5831 5826 5820 5814 5809 5803 5798 5792
5887 5889 5890 5892 5895 5897 5898 5899 5899 5900 5900 5900 5901 5901 5900 5900 5899 5897 5895 5893 5891 5889 5888 5885 5881 5878 5874 5871 5867 5861 5857 5852 5847 5842 5836 5831 5825 5819 5813 5807 5801 5796 5790 5785
5879 5883 5885 5888 5889 5891 5893 5893 5894 5894 5895 5895 5896 5893 5893 5893 5894 5892 5890 5887 5886 5884 5882 5879 5875 5872 5868 5864 5860 5854 5848 5843 5838 5834 5829 5824 5818 5811 5805 5800 5794 5788 5782 5776
5873 5877 5878 5880 5882 5883 5885 5886 5888 5889 5888 5889 5890 5889 5885 5884 5887 5885 5884 5882 5881 5879 5876 5873 5869 5865 5861 5856 5852 5847 5841 5836 5831 5826 5820 5815 5810 5804 5798 5791 5786 5780 5773 5768
5865 5869 5870 5871 5873 5875 5876 5877 5881 5882 5882 5882 5881 5884 5878 5879 5879 5878 5878 5876 5874 5872 5868 5865 5861 5857 5853 5849 5844 5839 5834 5828 5823 5817 5812 5807 5802 5796 5789 5782 5776 5770 5763 5758
5852 5857 5860 5861 5864 5864 5863 5874 5873 5874 5875 5874 5873 5877 5871 5872 5871 5871 5870 5867 5866 5863 5860 5857 5854 5849 5844 5839 5835 5831 5826 5819 5813 5808 5803 5798 5792 5786 5779 5773 5767 5760 5753 5748
5844 5849 5851 5852 5855 5849 5861 5866 5865 5864 5865 5864 5865 5866 5863 5862 5862 5863 5860 5858 5857 5854 5851 5848 5844 5840 5835 5830 5825 5821 5814 5808 5803 5799 5794 5787 5781 5775 5768 5763 5757 5751 5744 5738
5833 5837 5839 5840 5844 5847 5848 5855 5857 5855 5857 5856 5858 5855 5854 5852 5853 5855 5848 5851 5847 5844 5841 5838 5834 5830 5825 5818 5811 5807 5804 5798 5791 5786 5783 5777 5770 5765 5758 5752 5745 5739 5733 5726
5823 5826 5829 5831 5832 5834 5843 5845 5848 5847 5843 5854 5846 5844 5844 5844 5843 5842 5839 5838 5835 5833 5830 5826 5823 5819 5813 5808 5800 5795 5791 5787 5780 5775 5770 5764 5758 5752 5746 5740 5734 5727 5720 5713
5812 5815 5817 5820 5820 5823 5830 5835 5838 5835 5844 5838 5836 5835 5835 5834 5833 5833 5829 5827 5824 5822 5819 5816 5811 5806 5800 5795 5789 5784 5780 5774 5767 5762 5757 5751 5745 5740 5734 5728 5720 5713 5705 5697
5801 5805 5807 5808 5807 5809 5826 5823 5823 5827 5824 5824 5825 5826 5825 5825 5824 5822 5819 5815 5813 5810 5807 5803 5798 5793 5788 5782 5777 5772 5766 5758 5754 5750 5744 5738 5731 5725 5719 5714 5706 5698 5690 5682
5784 5792 5796 5799 5801 5805 5810 5810 5808 5811 5813 5814 5812 5811 5813 5814 5812 5810 5807 5804 5801 5798 5795 5790 5785 5779 5773 5768 5762 5758 5752 5745 5741 5736 5730 5724 5717 5711 5704 5698 5691 5682 5672 5663
5771 5778 5782 5783 5790 5793 5796 5797 5798 5798 5799 5798 5796 5798 5800 5800 5798 5796 5793 5791 5788 5785 5781 5776 5770 5763 5758 5754 5750 5745 5739 5733 5728 5721 5716 5711 5705 5698 5690 5681 5673 5663 5654 5644
5755 5762 5766 5769 5773 5780 5785 5786 5786 5783 5780 5780 5781 5786 5787 5787 5784 5782 5780 5778 5774 5770 5766 5760 5754 5750 5745 5739 5735 5730 5724 5719 5714 5709 5702 5697 5691 5684 5675 5664 5652 5643 5631 5620
5738 5746 5752 5762 5770 5767 5770 5770 5769 5767 5766 5766 5767 5770 5770 5770 5769 5767 5765 5762 5760 5755 5749 5743 5738 5734 5730 5723 5719 5714 5708 5704 5700 5695 5688 5682 5674 5664 5654 5645 5635 5620 5611 5597
Wind_Speed
11 10 10 10 10 11 12 12 12 11 11 11 11 10 10 10 9 8 8 8 7 7 7 6 6 8 11 13 15 16 18 18 18 19 21 22 23 23 23 23 22 23 21 21
12 13 13 13 13 12 11 11 12 13 13 12 11 11 11 11 9 7 8 9 8 8 7 6 7 9 11 12 13 15 16 17 18 20 22 23 25 25 24 24 24 24 24 24
15 15 14 13 13 13 14 15 15 16 16 15 12 12 12 12 10 7 7 9 10 10 8 7 8 9 11 12 13 14 16 18 20 21 23 25 25 28 28 26 26 26 26 26
16 16 17 17 17 16 16 17 17 17 15 13 11 10 10 11 10 8 7 6 7 8 9 9 10 10 11 12 13 14 15 18 20 21 24 26 28 29 31 31 29 28 27 29
20 20 19 18 18 18 19 19 17 16 15 12 10 9 8 8 7 6 5 5 6 8 11 12 12 12 12 13 14 16 17 17 19 22 24 27 29 31 32 32 32 32 30 29
20 20 19 19 20 19 19 18 16 14 12 11 10 8 8 6 5 5 5 6 7 9 10 11 11 13 14 15 16 16 18 19 18 20 22 24 26 29 30 32 32 33 33 32
20 19 19 19 19 19 17 17 15 12 11 9 8 7 6 6 5 5 6 6 6 8 9 11 13 15 17 18 18 19 20 21 20 20 22 24 25 27 29 30 33 34 34 34
20 19 19 18 17 17 15 14 12 12 11 8 6 4 2 2 3 4 6 6 7 9 11 13 15 17 19 21 21 22 22 23 23 22 23 24 26 28 30 31 33 35 36 35
19 18 18 18 17 15 15 14 13 12 8 6 3 1 2 5 5 5 6 7 9 11 13 14 16 18 20 21 23 24 25 24 25 25 25 25 26 27 30 32 34 35 37 37
19 17 17 17 17 15 15 14 13 11 10 8 5 5 6 7 7 7 8 8 9 12 14 15 17 19 21 23 25 26 27 27 27 28 28 28 28 27 30 32 33 35 37 38
20 19 18 18 18 18 16 16 16 12 10 9 9 9 9 10 10 9 10 10 12 14 16 18 20 22 26 28 29 30 30 30 30 30 30 29 30 30 31 32 35 35 36 37
24 22 21 21 20 20 19 17 16 14 13 14 13 13 12 13 13 13 12 13 15 16 17 20 22 26 28 30 30 31 32 32 32 32 31 30 30 32 33 34 36 37 38 38
28 25 25 22 21 20 20 20 20 19 18 18 16 18 16 16 14 16 14 16 17 17 19 22 25 28 31 32 34 34 35 35 34 34 33 33 33 34 35 36 37 38 40 41
32 28 27 26 25 26 24 25 24 24 22 22 17 22 23 20 16 17 17 18 19 19 23 25 28 31 34 36 37 38 39 39 39 37 37 37 37 38 39 39 40 40 41 42
34 32 31 31 30 30 29 30 28 25 26 25 22 23 28 27 18 21 20 22 22 22 25 28 31 34 36 38 40 41 42 42 41 40 40 39 39 40 40 41 42 43 44 44
36 35 36 36 35 34 34 33 29 27 28 28 30 24 29 29 26 26 24 26 26 26 30 31 33 35 36 39 41 42 43 44 44 43 42 42 43 40 41 42 43 45 47 48
44 41 40 41 40 40 42 30 32 32 32 32 33 27 33 30 30 29 28 30 30 31 34 35 36 37 40 43 44 45 47 47 46 44 44 44 42 40 41 43 45 48 50 50
45 43 44 45 44 49 38 32 34 35 34 35 33 31 34 35 33 30 33 34 34 36 38 38 40 42 42 47 54 53 52 50 48 46 42 45 43 42 43 46 48 50 51 52
50 49 49 50 48 47 43 36 35 37 36 35 34 35 35 37 37 32 40 37 39 40 42 42 45 46 48 57 58 55 50 47 48 48 43 44 45 44 45 47 49 52 54 56
55 53 53 52 52 50 42 41 37 38 42 27 37 39 38 37 39 38 43 42 43 42 45 47 49 52 57 60 63 55 49 48 48 47 46 46 46 46 48 52 51 55 56 58
59 57 56 55 55 53 48 44 38 44 35 36 39 40 39 40 41 42 45 47 48 47 48 50 54 57 62 64 59 54 49 49 48 49 49 50 49 50 52 53 53 55 59 63
60 58 58 58 59 57 44 45 45 39 42 42 42 42 42 40 42 46 49 50 51 51 51 55 60 63 67 63 60 57 54 53 51 51 51 52 54 57 60 61 63 65 66 69
65 61 58 58 57 53 48 48 49 48 45 43 46 47 43 43 45 48 50 52 52 52 56 59 62 67 61 60 59 58 55 55 54 56 54 54 55 60 64 66 69 71 73 75
67 63 61 62 59 56 53 51 51 50 49 51 52 48 46 46 47 50 52 54 54 58 59 62 67 65 63 59 59 57 56 56 56 57 56 59 61 66 72 74 75 77 79 83
68 65 65 64 64 58 53 51 50 52 54 55 55 52 49 49 52 55 58 63 64 63 65 67 66 67 64 61 59 58 56 56 57 63 62 62 67 74 75 77 79 80 84 90
76 73 69 65 57 57 55 54 56 59 60 59 58 55 53 54 58 60 63 67 67 68 69 67 67 67 64 62 60 61 58 54 55 59 62 67 72 75 78 80 83 87 92 96
Wind_Direction
164 154 151 147 148 147 141 136 130 134 133 127 123 115 110 101 94 96 90 82 75 68 57 41 17 353 346 345 342 339 335 341 340 335 334 332 331 329 327 325 323 318 318 320
167 162 161 161 165 161 147 138 135 132 128 122 115 113 107 106 104 94 87 82 77 73 58 37 18 3 351 342 336 332 330 330 330 329 327 327 327 325 326 324 319 316 315 318
169 166 163 161 156 146 136 136 135 128 127 125 125 124 122 111 107 99 89 84 82 78 62 40 21 359 344 339 336 331 327 325 327 327 324 325 326 323 327 324 322 317 312 311
160 155 149 146 141 140 141 142 137 132 126 129 119 120 110 100 97 93 90 78 69 60 48 41 28 15 360 350 342 336 329 328 325 322 320 321 322 325 326 325 325 320 314 310
157 153 149 147 145 149 148 144 139 136 131 119 115 111 107 92 79 72 71 62 49 39 32 26 18 10 3 358 353 348 341 334 325 320 319 317 319 321 322 323 325 323 319 312
159 158 157 158 160 160 157 153 150 144 134 123 112 109 108 104 91 68 59 50 41 27 18 11 6 2 358 355 349 343 337 336 331 324 319 315 317 317 318 319 321 322 323 318
167 166 165 170 172 170 166 163 164 160 156 144 124 115 106 93 63 43 40 39 21 3 355 351 348 346 348 347 344 341 335 331 331 326 322 319 316 315 316 317 317 318 321 320
178 178 178 178 177 178 176 174 170 168 166 160 146 142 88 353 339 359 10 4 351 349 346 343 343 340 339 338 338 337 335 330 329 326 324 322 320 317 317 316 315 316 316 316
190 188 189 191 192 191 190 190 185 181 180 188 211 237 299 302 309 322 333 333 332 337 342 343 342 338 335 333 332 331 330 328 326 323 323 323 323 318 315 315 315 314 313 313
202 201 204 205 204 202 205 208 201 201 205 219 243 266 278 292 301 307 314 318 328 333 335 337 338 336 333 332 331 330 328 327 328 324 321 321 320 321 317 314 313 313 312 312
211 212 216 215 213 212 212 214 217 220 232 251 267 272 279 285 290 292 301 307 317 329 333 334 337 336 335 336 335 331 329 327 327 325 320 317 316 320 319 315 312 310 310 308
219 219 220 219 220 219 219 221 226 240 253 265 271 274 273 278 282 283 294 302 312 323 329 332 332 331 333 334 333 328 324 323 324 325 323 319 318 317 316 315 312 310 306 305
224 222 224 224 226 229 230 230 237 247 257 267 269 275 270 268 269 276 288 298 311 320 324 328 328 327 329 332 330 328 326 324 323 324 326 327 321 313 313 313 311 307 305 303
229 225 228 230 232 234 234 238 244 254 259 262 269 270 278 275 274 276 287 299 308 315 319 323 324 323 327 330 329 328 327 324 322 322 323 324 321 318 314 312 308 307 305 303
233 230 232 234 236 238 240 245 250 258 262 268 266 270 278 276 281 282 290 298 301 307 312 318 318 321 326 326 326 327 327 324 322 320 320 320 320 319 313 310 309 309 307 305
232 231 235 237 239 242 244 248 254 261 265 269 273 274 268 276 283 285 290 292 299 306 309 313 314 317 321 322 323 325 324 321 320 319 318 320 322 318 313 311 310 309 307 307
228 229 232 237 242 245 250 256 260 260 266 269 270 275 274 276 280 286 291 291 297 301 304 309 311 313 316 318 321 323 321 319 317 316 315 318 317 316 314 313 311 309 308 309
236 236 238 242 244 251 258 252 260 265 264 268 270 271 273 278 281 285 286 289 294 298 301 305 307 310 313 316 317 318 318 315 314 313 312 312 314 314 314 314 312 310 308 308
236 238 241 245 248 256 257 256 256 260 264 270 273 272 272 276 281 288 282 292 293 297 300 302 304 306 310 316 318 318 314 311 309 310 309 311 313 312 313 312 309 307 308 310
241 243 246 251 254 259 262 260 265 267 264 272 268 268 271 276 280 279 288 291 293 295 297 299 302 305 308 316 316 314 313 310 306 307 307 310 310 311 311 310 306 306 308 308
243 246 249 254 257 259 262 267 264 263 278 266 261 266 273 273 277 284 286 290 291 294 296 299 300 302 308 313 311 309 311 308 305 307 306 308 309 311 310 307 304 303 307 308
245 249 251 253 256 258 268 268 270 269 263 266 269 268 269 275 280 283 286 288 290 294 297 299 302 304 307 307 305 307 309 307 306 308 302 305 310 312 310 307 304 304 304 305
245 248 254 256 260 263 263 263 265 267 271 271 270 270 274 277 280 283 284 287 291 295 299 301 300 302 304 305 307 309 306 306 306 305 301 305 309 309 309 309 306 305 305 306
250 250 251 255 256 260 262 263 267 273 272 269 269 270 273 276 278 280 284 287 289 293 298 300 300 301 303 303 303 302 302 302 306 308 303 301 304 307 309 309 310 308 308 309
248 249 250 251 254 257 260 264 265 264 265 267 269 272 275 277 279 281 285 290 289 291 294 297 297 299 301 301 300 301 303 308 311 308 304 303 307 310 310 310 309 309 309 308
246 250 253 259 261 261 260 259 259 263 266 268 273 276 276 278 282 287 288 292 292 291 293 295 296 299 300 300 300 303 303 307 310 308 306 308 311 312 311 311 310 309 307 305